Location: Beddau
(51.5575°N, 3.3561°W)
Time: 02:56:10
(UTC+00:00)

SL-08 RB Rocket - Pass Details

Date: 03 March 2021
Orbit: 647 x 683 km, 97.8° (Epoch: 12 April)

Event Time Altitude Azimuth Distance (km) Brightness Sun altitude
Rises 18:51:51 0° 152° (SSE) 2,971 6.8 -9.2°
Reaches altitude 10° 18:54:04 10° 149° (SSE) 2,069 5.9 -9.6°
Maximum altitude 18:58:29 58° 71° (ENE) 778 3.8 -10.3°
Drops below altitude 10° 19:03:00 10° 353° (N) 2,107 6.4 -11.0°
Sets 19:05:17 0° 349° (N) 3,031 7.3 -11.3°
